Flag for Czech Republic Weather past 2 weeks in Plzen, Czech Republic

Now
52 °F

Cool.


Feels Like: 51 °F
Forecast: 42 / 70 °F
Wind: 3 mph from Northeast

Location: Kocelovice


UV Index: 3 (Moderate)

Visibility: 13 mi


Pressure: 30.11 "Hg

Humidity: 75%

Dew point: 44 °F

Location of PlzenLocation

Historic Weather in Plzen

°F

Plzen temperature yesterday

Maximum temperature yesterday: 66 °F (at 3:00 PM)
Minimum temperature yesterday: 44 °F (at 7:00 AM)
Average temperature yesterday: 55 °F

Past Weeks' High & Low Weather Summary

 TemperatureHumidityPressure
High66 °F (Apr 23, 3:00 PM)100% (Apr 19, 4:00 AM)30.44 "Hg (Apr 19, 4:00 AM)
Low28 °F (Apr 17, 6:00 AM)29% (Apr 17, 5:00 PM)29.64 "Hg (Apr 21, 6:00 PM)
Average46 °F71%30.02 "Hg
* Reported Apr 9 2:00 AM — Apr 23 11:00 PM, Plzen, Weather by CustomWeather, © 2014

Note: Actual official high and low records may vary slightly from our data, if they occured in-between our weather recording intervals... More about our weather records

Advertising

Historic Weather Conditions — Data for Previous 24 hours

 ConditionsComfort  
Time TempWeatherWind HumidityBarometerVisibility
11:00 PM
Apr 23
52 °FCool.3 mph74%30.11 "Hg12 mi
10:00 PM54 °FPassing clouds.5 mph68%30.11 "Hg37 mi
9:00 PM56 °FPassing clouds.5 mph62%30.08 "Hg40 mi
8:00 PM59 °FScattered clouds.3 mph54%30.04 "Hg47 mi
7:00 PM63 °FScattered clouds.5 mph46%30.02 "Hg47 mi
6:00 PM64 °FScattered clouds.7 mph42%30.02 "Hg47 mi
5:00 PM66 °FScattered clouds.6 mph42%30.02 "Hg47 mi
4:00 PM65 °FScattered clouds.3 mph35%30.03 "Hg47 mi
3:00 PM66 °FPassing clouds.N/A40%30.04 "Hg47 mi
2:00 PM64 °FScattered clouds.3 mph42%30.06 "Hg37 mi
1:00 PM64 °FScattered clouds.N/A42%30.07 "Hg37 mi
12:00 PM63 °FScattered clouds.3 mph46%30.08 "Hg34 mi
11:00 AM62 °FPassing clouds.5 mph48%30.08 "Hg34 mi
10:00 AM59 °FPassing clouds.N/A54%30.08 "Hg34 mi
9:00 AM54 °FPassing clouds.N/A75%30.09 "Hg34 mi
8:00 AM49 °FPassing clouds.N/A83%30.11 "Hg34 mi
7:00 AM44 °FQuite cool.3 mph96%30.12 "Hg9 mi
6:00 AM45 °FCool.2 mph90%30.10 "Hg12 mi
5:00 AM46 °FCool.2 mph94%30.09 "Hg9 mi
4:00 AM44 °FQuite cool.2 mph100%30.08 "Hg2 mi
3:00 AM44 °FFog.N/A99%30.07 "Hg2 mi
2:00 AM46 °FFog.N/A98%30.06 "Hg5 mi
1:00 AM46 °FFog.2 mph96%30.05 "Hg5 mi
Weather by CustomWeather, © 2014

See weather overview